Weather History for Carmi, IL

Change the Weather History Date:

Wednesday, May 29, 2013

  Actual Average (KEVV) Record (KEVV)
Temperature  
Mean Temperature 75 °F 70 °F  
Max Temperature 86 °F 81 °F 94 °F (1926)
Min Temperature 64 °F 59 °F 39 °F (1965)
Degree Days  
Heating Degree Days 0 1  
Month to date heating degree days 84  
Since 1 July heating degree days 4539  
Cooling Degree Days 10 6  
Month to date cooling degree days 96  
Year to date cooling degree days 123  
Growing Degree Days 25 (Base 50)    
Moisture  
Dew Point 63 °F    
Average Humidity 64    
Maximum Humidity 88    
Minimum Humidity 42    
Precipitation  
Precipitation 0.00 in 0.18 in 1.59 in (1974)
Month to date precipitation 5.02  
Year to date precipitation 19.90  
Snow  
Snow 0.00 in 0.00 in 0.00 in (2002)
Month to date snowfall 0.0  
Since 1 July snowfall 11.8  
Snow Depth -    
Sea Level Pressure  
Sea Level Pressure 30.00 in    
Wind  
Wind Speed 9 mph (SSE)    
Max Wind Speed 18 mph    
Max Gust Speed 24 mph    
Visibility 10 miles    
Events      
T = Trace of Precipitation, MM = Missing Value Source: NWS Daily Summary

Daily Weather History Graph

Daily Weather History Graph

Search for Another Location

Airport:

Trip Planner

Search our weather history database for the weather conditions in past years. The results will help you decide how hot, cold, wet, or windy it might be!

Date:

Astronomy

May. 29, 2013 Rise Set
Actual Time 5:32 AM CDT 8:07 PM CDT
Civil Twilight 5:01 AM CDT 8:38 PM CDT
Nautical Twilight 4:23 AM CDT 9:16 PM CDT
Astronomical Twilight 3:41 AM CDT 9:59 PM CDT
Moon No Moon Rise 10:28 AM CDT (5/29)
Length of Visible Light 15h 36m
Length of Day
14h 35m
Waning Gibbous, 73% of the Moon is Illuminated
May 29
Waning Gibbous
May 31
Last Quarter
Jun 8
New
Jun 16
First Quarter
Jun 23
Full

Hourly Weather History & Observations

Time (CDT) Temp. Heat Index Dew Point Humidity Pressure Visibility Wind Dir Wind Speed Gust Speed Precip Events Conditions
12:19 AM 73.4 °F - 60.8 °F 65% 29.96 in 10.0 mi South 10.4 mph - N/A   Clear
12:39 AM 71.6 °F - 60.8 °F 69% 29.97 in 10.0 mi South 9.2 mph - N/A   Clear
12:59 AM 73.4 °F - 60.8 °F 65% 29.97 in 10.0 mi South 8.1 mph - N/A   Clear
1:21 AM 71.6 °F - 60.8 °F 69% 29.96 in 10.0 mi South 9.2 mph - N/A   Clear
1:39 AM 71.6 °F - 60.8 °F 69% 29.97 in 10.0 mi South 9.2 mph - N/A   Clear
2:00 AM 69.8 °F - 60.8 °F 73% 29.99 in 10.0 mi South 6.9 mph - N/A   Clear
2:19 AM 69.8 °F - 60.8 °F 73% 29.99 in 10.0 mi South 5.8 mph - N/A   Clear
2:39 AM 68.0 °F - 60.8 °F 78% 30.00 in 10.0 mi South 6.9 mph - N/A   Clear
2:59 AM 68.0 °F - 60.8 °F 78% 30.00 in 10.0 mi South 3.5 mph - N/A   Clear
3:19 AM 66.2 °F - 60.8 °F 83% 30.00 in 10.0 mi SSE 3.5 mph - N/A   Clear
3:40 AM 66.2 °F - 60.8 °F 83% 30.00 in 10.0 mi SSE 4.6 mph - N/A   Clear
3:59 AM 66.2 °F - 60.8 °F 83% 30.01 in 10.0 mi SSE 3.5 mph - N/A   Clear
4:19 AM 66.2 °F - 60.8 °F 83% 30.02 in 10.0 mi Calm Calm - N/A   Clear
4:39 AM 64.4 °F - 60.8 °F 88% 30.02 in 10.0 mi South 5.8 mph - N/A   Clear
5:00 AM 64.4 °F - 60.8 °F 88% 30.01 in 10.0 mi South 6.9 mph - N/A   Clear
5:19 AM 66.2 °F - 59.0 °F 78% 30.02 in 10.0 mi South 5.8 mph - N/A   Clear
5:39 AM 64.4 °F - 59.0 °F 83% 30.03 in 10.0 mi South 4.6 mph - N/A   Clear
5:59 AM 64.4 °F - 60.8 °F 88% 30.04 in 10.0 mi South 6.9 mph - N/A   Clear
6:20 AM 66.2 °F - 60.8 °F 83% 30.05 in 10.0 mi South 6.9 mph - N/A   Clear
6:39 AM 66.2 °F - 60.8 °F 83% 30.05 in 10.0 mi South 5.8 mph - N/A   Clear
6:59 AM 69.8 °F - 60.8 °F 73% 30.05 in 10.0 mi SSE 5.8 mph - N/A   Scattered Clouds
7:21 AM 69.8 °F - 60.8 °F 73% 30.05 in 10.0 mi SSE 5.8 mph - N/A   Scattered Clouds
7:39 AM 71.6 °F - 62.6 °F 73% 30.05 in 10.0 mi SSE 6.9 mph - N/A   Scattered Clouds
7:59 AM 71.6 °F - 62.6 °F 73% 30.05 in 10.0 mi SSE 8.1 mph - N/A   Mostly Cloudy
8:21 AM 73.4 °F - 62.6 °F 69% 30.04 in 10.0 mi South 10.4 mph - N/A   Scattered Clouds
8:39 AM 73.4 °F - 62.6 °F 69% 30.04 in 10.0 mi South 12.7 mph - N/A   Clear
8:59 AM 75.2 °F - 62.6 °F 65% 30.04 in 10.0 mi South 13.8 mph - N/A   Clear
9:19 AM 77.0 °F - 62.6 °F 61% 30.05 in 10.0 mi South 9.2 mph - N/A   Clear
9:40 AM 77.0 °F - 62.6 °F 61% 30.04 in 10.0 mi South 8.1 mph - N/A   Clear
9:58 AM 78.8 °F - 64.4 °F 61% 30.04 in 10.0 mi South 9.2 mph - N/A   Clear
10:20 AM 80.6 °F 82.7 °F 66.2 °F 61% 30.04 in 10.0 mi South 13.8 mph - N/A   Clear
10:38 AM 80.6 °F 82.7 °F 66.2 °F 61% 30.04 in 10.0 mi South 12.7 mph - N/A   Clear
10:58 AM 82.4 °F 84.6 °F 66.2 °F 58% 30.03 in 10.0 mi South 12.7 mph - N/A   Clear
11:18 AM 82.4 °F 84.6 °F 66.2 °F 58% 30.03 in 10.0 mi South 13.8 mph - N/A   Clear
11:38 AM 82.4 °F 83.9 °F 64.4 °F 54% 30.02 in 10.0 mi South 16.1 mph - N/A   Clear
11:58 AM 82.4 °F 83.4 °F 62.6 °F 51% 30.02 in 10.0 mi South 17.3 mph 21.9 mph N/A   Clear
12:18 PM 84.2 °F 85.0 °F 62.6 °F 48% 30.02 in 10.0 mi South 13.8 mph 21.9 mph N/A   Clear
12:38 PM 84.2 °F 84.4 °F 60.8 °F 45% 30.02 in 10.0 mi South 17.3 mph 20.7 mph N/A   Clear
12:58 PM 84.2 °F 83.8 °F 59.0 °F 42% 30.02 in 10.0 mi South 15.0 mph 19.6 mph N/A   Clear
1:18 PM 84.2 °F 84.4 °F 60.8 °F 45% 30.01 in 10.0 mi South 13.8 mph - N/A   Clear
1:38 PM 84.2 °F 84.4 °F 60.8 °F 45% 30.01 in 10.0 mi SSW 13.8 mph - N/A   Clear
1:55 PM 84.2 °F 84.6 °F 61.3 °F 46% 30.01 in 10.0 mi SSW 13.8 mph 19.6 mph N/A   Clear
2:15 PM 84.4 °F 84.6 °F 61.2 °F 45% 30.00 in 10.0 mi South 12.7 mph - N/A   Clear
2:35 PM 85.1 °F 85.4 °F 61.7 °F 45% 30.00 in 10.0 mi South 16.1 mph 20.7 mph N/A   Clear
2:55 PM 84.4 °F 84.6 °F 61.0 °F 45% 30.00 in 10.0 mi South 16.1 mph - N/A   Clear
3:15 PM 85.3 °F 86.1 °F 63.0 °F 47% 29.99 in 10.0 mi South 13.8 mph 17.3 mph N/A   Clear
3:35 PM 83.8 °F 84.1 °F 61.2 °F 46% 29.98 in 10.0 mi SSE 10.4 mph - N/A   Scattered Clouds
3:55 PM 85.5 °F 85.9 °F 61.7 °F 45% 29.98 in 10.0 mi South 18.4 mph 21.9 mph N/A   Scattered Clouds
4:15 PM 85.3 °F 85.9 °F 62.4 °F 46% 29.97 in 10.0 mi South 11.5 mph 20.7 mph N/A   Clear
4:35 PM 86.2 °F 87.9 °F 65.1 °F 49% 29.97 in 10.0 mi South 12.7 mph 18.4 mph N/A   Scattered Clouds
4:55 PM 85.3 °F 86.6 °F 64.0 °F 49% 29.97 in 10.0 mi South 15.0 mph 20.7 mph N/A   Mostly Cloudy
5:15 PM 84.6 °F 87.1 °F 66.6 °F 55% 29.97 in 10.0 mi South 15.0 mph - N/A   Scattered Clouds
5:35 PM 83.8 °F 85.8 °F 65.7 °F 54% 29.96 in 10.0 mi South 16.1 mph 23.0 mph N/A   Scattered Clouds
5:55 PM 84.9 °F 87.1 °F 65.8 °F 53% 29.96 in 10.0 mi SSE 18.4 mph 24.2 mph N/A   Scattered Clouds
6:15 PM 84.0 °F 86.0 °F 65.8 °F 54% 29.95 in 10.0 mi South 11.5 mph 19.6 mph N/A   Clear
6:35 PM 83.1 °F 85.4 °F 66.6 °F 57% 29.95 in 10.0 mi South 9.2 mph - N/A   Clear
6:55 PM 82.6 °F 85.1 °F 67.1 °F 59% 29.94 in 10.0 mi South 12.7 mph 17.3 mph N/A   Clear
7:15 PM 81.7 °F 83.8 °F 66.0 °F 59% 29.94 in 10.0 mi SSE 9.2 mph - N/A   Clear
7:35 PM 81.7 °F 83.3 °F 64.4 °F 56% 29.94 in 10.0 mi South 12.7 mph 20.7 mph N/A   Clear
7:55 PM 80.2 °F 82.2 °F 65.5 °F 61% 29.94 in 10.0 mi SSE 10.4 mph 16.1 mph N/A   Clear
8:15 PM 79.5 °F - 63.9 °F 59% 29.94 in 10.0 mi SSE 10.4 mph - N/A   Clear
8:35 PM 78.1 °F - 63.5 °F 61% 29.94 in 10.0 mi SSE 8.1 mph - N/A   Clear
8:55 PM 77.7 °F - 63.5 °F 61% 29.94 in 10.0 mi SSE 9.2 mph - N/A   Clear
9:15 PM 77.9 °F - 63.7 °F 61% 29.94 in 10.0 mi SSE 10.4 mph - N/A   Clear
9:35 PM 78.1 °F - 64.0 °F 62% 29.95 in 10.0 mi SSE 9.2 mph - N/A   Clear
9:55 PM 76.5 °F - 64.2 °F 66% 29.95 in 10.0 mi SSE 9.2 mph - N/A   Clear
10:15 PM 76.6 °F - 64.6 °F 66% 29.95 in 10.0 mi SE 8.1 mph - N/A   Clear
10:35 PM 75.6 °F - 65.7 °F 71% 29.96 in 10.0 mi SSE 8.1 mph - N/A   Clear
10:55 PM 75.4 °F - 66.2 °F 73% 29.97 in 10.0 mi SE 8.1 mph - N/A   Clear
11:15 PM 75.2 °F - 66.4 °F 74% 29.97 in 10.0 mi SE 6.9 mph - N/A   Clear
11:35 PM 74.3 °F - 66.4 °F 76% 29.98 in 10.0 mi SE 6.9 mph - N/A   Clear
11:55 PM 73.9 °F - 66.6 °F 78% 29.99 in 10.0 mi SE 5.8 mph - N/A   Clear